TimeEST,TemperatureF,Dew PointF,Humidity,Sea Level PressureIn,VisibilityMPH,Wind Direction,Wind SpeedMPH,Gust SpeedMPH,PrecipitationIn,Events,Conditions,WindDirDegrees,DateUTC
12:15 AM,44.1,39.0,82,30.06,10.0,NE,10.4,-,N/A,,Overcast,40,2012-12-09 05:15:00
12:35 AM,43.7,38.7,82,30.06,10.0,NE,8.1,-,N/A,,Overcast,50,2012-12-09 05:35:00
12:55 AM,43.7,38.7,82,30.06,10.0,ENE,8.1,-,N/A,,Overcast,60,2012-12-09 05:55:00
1:15 AM,43.9,38.7,82,30.06,10.0,NE,8.1,-,N/A,,Overcast,50,2012-12-09 06:15:00
1:35 AM,44.1,38.5,81,30.07,10.0,ENE,10.4,-,N/A,,Overcast,60,2012-12-09 06:35:00
1:55 AM,44.1,38.5,81,30.07,10.0,NE,5.8,-,N/A,,Overcast,50,2012-12-09 06:55:00
2:15 AM,43.9,38.5,81,30.06,10.0,NE,10.4,-,N/A,,Overcast,50,2012-12-09 07:15:00
2:35 AM,43.9,38.1,80,30.07,10.0,NE,12.7,-,N/A,,Overcast,50,2012-12-09 07:35:00
2:55 AM,43.9,37.9,80,30.07,10.0,NE,10.4,-,N/A,,Overcast,50,2012-12-09 07:55:00
3:15 AM,43.7,37.8,80,30.07,10.0,ENE,11.5,-,N/A,,Overcast,60,2012-12-09 08:15:00
3:35 AM,43.7,37.8,80,30.06,10.0,NE,13.8,17.3,N/A,,Overcast,50,2012-12-09 08:35:00
3:55 AM,43.5,37.6,80,30.06,10.0,ENE,10.4,-,N/A,,Overcast,60,2012-12-09 08:55:00
4:15 AM,43.2,37.2,80,30.06,10.0,NE,13.8,-,N/A,,Overcast,50,2012-12-09 09:15:00
4:35 AM,43.2,36.7,78,30.06,10.0,ENE,10.4,-,N/A,,Overcast,60,2012-12-09 09:35:00
4:55 AM,42.8,36.7,79,30.05,10.0,ENE,11.5,-,N/A,,Overcast,70,2012-12-09 09:55:00
5:15 AM,42.8,36.5,78,30.05,10.0,ENE,12.7,-,N/A,,Overcast,70,2012-12-09 10:15:00
5:35 AM,42.8,36.5,78,30.05,10.0,ENE,9.2,-,N/A,,Overcast,60,2012-12-09 10:35:00
5:55 AM,42.4,36.5,79,30.06,10.0,NE,8.1,-,N/A,,Overcast,50,2012-12-09 10:55:00
6:15 AM,42.3,36.1,79,30.06,10.0,NE,10.4,-,N/A,,Overcast,50,2012-12-09 11:15:00
6:35 AM,42.3,36.0,78,30.06,10.0,NE,8.1,-,N/A,,Overcast,50,2012-12-09 11:35:00
6:55 AM,42.3,35.8,78,30.06,10.0,ENE,15.0,-,N/A,,Overcast,60,2012-12-09 11:55:00
7:15 AM,42.1,35.6,78,30.06,10.0,ENE,11.5,16.1,N/A,,Overcast,70,2012-12-09 12:15:00
7:35 AM,41.9,35.6,78,30.05,10.0,ENE,12.7,-,N/A,,Overcast,70,2012-12-09 12:35:00
7:55 AM,41.9,35.6,78,30.04,10.0,ENE,12.7,18.4,N/A,,Overcast,70,2012-12-09 12:55:00
8:15 AM,41.9,35.6,78,30.04,10.0,ENE,10.4,-,N/A,,Overcast,70,2012-12-09 13:15:00
8:35 AM,41.9,35.8,79,30.04,10.0,ENE,10.4,16.1,N/A,,Overcast,70,2012-12-09 13:35:00
8:55 AM,42.1,36.0,79,30.04,10.0,East,10.4,-,N/A,,Overcast,80,2012-12-09 13:55:00
9:15 AM,42.6,36.3,78,30.03,10.0,East,6.9,-,N/A,,Overcast,90,2012-12-09 14:15:00
9:35 AM,43.2,36.7,78,30.03,10.0,East,8.1,-,N/A,,Overcast,100,2012-12-09 14:35:00
9:55 AM,43.7,37.2,78,30.03,10.0,East,8.1,-,N/A,,Overcast,90,2012-12-09 14:55:00
10:15 AM,44.1,37.4,77,30.01,10.0,East,9.2,-,N/A,,Overcast,80,2012-12-09 15:15:00
10:35 AM,44.2,37.9,79,30.01,10.0,ESE,6.9,-,N/A,,Overcast,110,2012-12-09 15:35:00
10:55 AM,45.0,38.7,79,30.00,10.0,ESE,6.9,-,N/A,,Overcast,110,2012-12-09 15:55:00
11:15 AM,45.9,39.2,78,29.98,10.0,ESE,9.2,-,N/A,,Overcast,110,2012-12-09 16:15:00
11:35 AM,45.9,39.4,78,29.97,10.0,ESE,8.1,-,N/A,,Overcast,110,2012-12-09 16:35:00
11:55 AM,46.4,39.7,78,29.96,10.0,ESE,5.8,-,N/A,,Overcast,110,2012-12-09 16:55:00
12:15 PM,46.6,40.6,80,29.95,10.0,East,5.8,-,N/A,Rain,Light Rain,100,2012-12-09 17:15:00
12:35 PM,46.8,41.4,81,29.93,10.0,ESE,6.9,-,N/A,,Overcast,110,2012-12-09 17:35:00
12:55 PM,47.3,41.9,82,29.92,10.0,SE,5.8,-,N/A,,Overcast,130,2012-12-09 17:55:00
1:15 PM,47.3,42.3,83,29.91,10.0,SE,4.6,-,N/A,Rain,Light Rain,130,2012-12-09 18:15:00
1:55 PM,47.3,42.8,84,29.88,7.0,ESE,5.8,-,N/A,,Light Drizzle,120,2012-12-09 18:55:00
2:15 PM,47.3,43.2,86,29.87,10.0,SE,4.6,-,N/A,Rain,Light Rain,130,2012-12-09 19:15:00
2:35 PM,47.3,43.2,86,29.87,10.0,Calm,Calm,-,N/A,Rain,Light Rain,0,2012-12-09 19:35:00
2:55 PM,47.7,43.7,86,29.85,10.0,SE,4.6,-,N/A,,Overcast,130,2012-12-09 19:55:00
3:15 PM,48.4,44.4,86,29.85,10.0,SSE,6.9,-,N/A,,Overcast,160,2012-12-09 20:15:00
3:35 PM,49.3,45.3,86,29.85,10.0,SSE,10.4,-,N/A,,Overcast,160,2012-12-09 20:35:00
3:55 PM,49.5,45.5,86,29.84,10.0,SSE,8.1,-,N/A,,Overcast,160,2012-12-09 20:55:00
4:15 PM,49.6,45.7,86,29.84,10.0,South,10.4,-,N/A,,Overcast,170,2012-12-09 21:15:00
4:35 PM,50.0,46.0,86,29.83,10.0,South,6.9,-,N/A,,Overcast,170,2012-12-09 21:35:00
4:55 PM,50.0,46.2,87,29.83,10.0,South,10.4,-,N/A,,Overcast,180,2012-12-09 21:55:00
5:15 PM,50.4,46.6,87,29.83,10.0,South,9.2,-,N/A,,Overcast,180,2012-12-09 22:15:00
5:35 PM,50.4,46.8,87,29.83,10.0,South,8.1,-,N/A,,Mostly Cloudy,180,2012-12-09 22:35:00
5:55 PM,50.7,46.9,87,29.82,10.0,South,10.4,-,N/A,,Overcast,170,2012-12-09 22:55:00
6:15 PM,51.1,47.3,87,29.81,10.0,South,10.4,-,N/A,,Overcast,180,2012-12-09 23:15:00
6:35 PM,51.6,47.7,86,29.81,10.0,South,10.4,-,N/A,Rain,Light Rain,190,2012-12-09 23:35:00
6:55 PM,52.0,48.2,87,29.80,10.0,South,11.5,-,N/A,,Overcast,170,2012-12-09 23:55:00
7:15 PM,52.2,48.4,87,29.80,10.0,South,10.4,-,N/A,Rain,Light Rain,180,2012-12-10 00:15:00
7:35 PM,52.3,48.6,87,29.79,10.0,South,11.5,-,N/A,,Overcast,170,2012-12-10 00:35:00
7:55 PM,52.7,48.6,86,29.79,10.0,South,10.4,-,N/A,,Overcast,170,2012-12-10 00:55:00
8:15 PM,52.7,48.7,86,29.78,10.0,South,9.2,-,N/A,,Overcast,170,2012-12-10 01:15:00
8:35 PM,52.7,48.9,87,29.77,10.0,South,8.1,-,N/A,,Overcast,180,2012-12-10 01:35:00
8:55 PM,52.7,49.1,88,29.76,10.0,South,9.2,-,N/A,Rain,Light Rain,180,2012-12-10 01:55:00
9:15 PM,52.9,49.1,87,29.74,10.0,South,9.2,-,N/A,Thunderstorm,Overcast,170,2012-12-10 02:15:00
9:35 PM,53.2,49.6,88,29.73,10.0,South,12.7,18.4,N/A,,Overcast,170,2012-12-10 02:35:00
9:55 PM,53.8,50.0,87,29.72,10.0,South,11.5,-,N/A,,Overcast,170,2012-12-10 02:55:00
10:15 PM,54.0,50.2,87,29.71,5.0,South,10.4,-,N/A,Rain,Heavy Rain,180,2012-12-10 03:15:00
10:35 PM,54.0,50.4,88,29.70,10.0,South,9.2,-,N/A,Rain,Light Rain,170,2012-12-10 03:35:00
10:55 PM,54.1,50.5,88,29.70,5.0,South,9.2,-,N/A,Rain,Heavy Rain,180,2012-12-10 03:55:00
11:15 PM,54.5,51.1,88,29.70,5.0,SSW,9.2,-,N/A,Rain,Heavy Rain,210,2012-12-10 04:15:00
11:35 PM,54.3,50.9,88,29.69,3.0,West,12.7,18.4,N/A,Rain,Rain,270,2012-12-10 04:35:00
11:55 PM,53.8,49.1,84,29.70,10.0,WSW,8.1,-,N/A,Rain,Light Rain,250,2012-12-10 04:55:00